sat.trackr.live / text

‹ back to catalog

STARLINK-1707

NORAD 46359 · 2020-062AL

PAYLOAD ACTIVE UNKNOWN

§ Identity

Operator
Country
US
Launch date
2020-09-03
Launch site
AFETR
Launch vehicle
Mass (kg)
RCS (m²)

Purposes: comms

External: N2YO · Heavens-Above · Gunter

§ Orbital elements

Epoch: 2026-07-11T01:14:44.574720Z

Period
87.69 min
Inclination
53.0004°
Eccentricity
0.0011304
Mean motion
16.42151990 rev/d
Perigee alt
152.7 km
Apogee alt
167.5 km
Semi-major
6,538.2 km
B*
3.7730e-4
RAAN
13.4681°
Arg perigee
274.7289°
Mean anomaly
85.2467°
Rev number
32,526

§ Raw data

STARLINK-17071 46359U 20062AL  26192.05190480  .08024522  12439-4  37730-3 0  99932 46359  53.0004  13.4681 0011304 274.7289  85.2467 16.42151990325260

JSON: /api/v1/satellites/46359 · /tle

For live sub-satellite position, see the globe view (requires WebGL).

§ Visibility from observer

Set your observer location to see the next 7 days of passes ≥ 10°. The values pass through the URL so the page stays shareable.

No JS? Fill the form by hand. The geolocation button needs JavaScript.